Location: Mount Graham
(32.7016°N, 109.8912°W)
Time: 07:56:39
(UTC-07:00)

Cosmos 1340 - Visible Passes

Search period start: 05 July 2015 00:00
Search period end: 15 July 2015 00:00
Orbit: 513 x 519 km, 81.2° (Epoch: 04 July)

Date Brightness Start Highest point End Pass type
(mag) Time Alt. Az. Time Alt. Az. Time Alt. Az.
05 Jul 3.4 21:57:36 48° NNE 21:57:36 48° NNE 22:00:25 10° N visible
06 Jul 3.0 21:42:13 53° NE 21:42:13 53° NE 21:45:20 10° NNE visible
07 Jul 2.9 21:26:47 51° ENE 21:26:47 51° ENE 21:30:13 10° NNE visible
08 Jul 3.0 21:11:16 42° ESE 21:11:26 42° E 21:15:05 10° NNE visible
09 Jul 3.4 20:55:42 31° ESE 20:56:23 34° E 20:59:53 10° NNE visible
09 Jul 5.7 22:31:16 10° W 22:32:29 11° WNW 22:33:27 10° NW visible
10 Jul 3.7 20:40:03 22° SE 20:41:20 28° E 20:44:39 10° NNE visible
10 Jul 5.6 22:15:18 10° WSW 22:17:20 13° WNW 22:19:10 10° NW visible
11 Jul 3.9 20:24:18 15° SE 20:26:17 23° E 20:29:23 10° NE visible
11 Jul 5.5 21:59:41 10° WSW 22:02:11 16° WNW 22:04:33 10° NW visible
12 Jul 4.2 20:08:35 10° SE 20:11:14 19° E 20:14:01 10° NE visible
12 Jul 5.2 21:44:10 10° WSW 21:47:02 19° WNW 21:49:49 10° NNW visible
13 Jul 4.4 19:53:58 10° SE 19:56:11 15° E 19:58:34 10° NE visible
13 Jul 5.0 21:28:46 10° SW 21:31:54 23° WNW 21:34:58 10° NNW visible
14 Jul 4.7 21:13:25 10° SW 21:16:46 28° WNW 21:20:05 10° NNW visible
